Location: Arrington
(35.8681°N, 86.7092°W)
Time: 11:31:58
(UTC+00:00)

ATLAS 2AS CENTAUR R/B - Pass Details

Date: 25 February 2020
Orbit: 929 x 1283 km, 63.7° (Epoch: 05 April)

Event Time Altitude Azimuth Distance (km) Brightness Sun altitude
Rises 10:56:14 0° 334° (NNW) 4,165 5.5 -18.3°
Reaches altitude 10° 10:59:25 10° 343° (NNW) 3,152 5.0 -17.6°
Maximum altitude 11:06:13 35° 47° (NE) 1,745 4.3 -16.2°
Drops below altitude 10° 11:12:30 10° 112° (ESE) 2,908 6.1 -15.0°
Sets 11:15:17 0° 121° (ESE) 3,806 6.7 -14.4°
